| time (UTC) | temp C | wind direction | speed KPH | gust KPH | rain 1hr cm | rain 24hr cm | rain mn cm | humidity % | barometer mb |
| 20260505053539 | 16 | 244 | 1.6 | 3.2 | 0.00 | 0.00 | 0.00 | 55 | 1009.9 |
| 20260505053036 | 16 | 90 | 0.0 | 0.0 | 0.00 | 0.00 | 0.00 | 55 | 1009.9 |
| 20260505052533 | 16 | 90 | 0.0 | 0.0 | 0.00 | 0.00 | 0.00 | 55 | 1009.8 |
| 20260505052031 | 16 | 97 | 1.6 | 3.2 | 0.00 | 0.00 | 0.00 | 55 | 1009.9 |
| 20260505051527 | 16 | 123 | 0.0 | 0.0 | 0.00 | 0.00 | 0.00 | 54 | 1009.8 |
| 20260505051025 | 16 | 123 | 3.2 | 3.2 | 0.00 | 0.00 | 0.00 | 54 | 1009.8 |
| 20260505050523 | 16 | 123 | 1.6 | 3.2 | 0.00 | 0.00 | 0.00 | 53 | 1009.9 |
| 20260505041451 | 16 | 106 | 3.2 | 3.2 | 0.00 | 0.00 | 0.00 | 50 | 1010.0 |
| 20260505040948 | 16 | 101 | 3.2 | 4.8 | 0.00 | 0.00 | 0.00 | 51 | 1009.8 |
| 20260505040446 | 16 | 75 | 3.2 | 4.8 | 0.00 | 0.00 | 0.00 | 50 | 1010.0 |
| 20260505035942 | 16 | 62 | 3.2 | 3.2 | 0.00 | 0.00 | 0.00 | 50 | 1009.7 |
| 20260505035438 | 16 | 171 | 1.6 | 3.2 | 0.00 | 0.00 | 0.00 | 50 | 1009.8 |
| 20260505034936 | 16 | 166 | 3.2 | 3.2 | 0.00 | 0.00 | 0.00 | 50 | 1009.8 |
| 20260505034432 | 16 | 166 | 1.6 | 3.2 | 0.00 | 0.00 | 0.00 | 50 | 1009.7 |
| 20260505033929 | 16 | 166 | 3.2 | 3.2 | 0.00 | 0.00 | 0.00 | 49 | 1009.6 |
| 20260505033426 | 16 | 166 | 0.0 | 0.0 | 0.00 | 0.00 | 0.00 | 49 | 1009.9 |
| 20260505032924 | 16 | 166 | 1.6 | 3.2 | 0.00 | 0.00 | 0.00 | 48 | 1009.8 |
| 20260505032421 | 16 | 166 | 3.2 | 3.2 | 0.00 | 0.00 | 0.00 | 47 | 1009.7 |
| 20260505031918 | 16 | 166 | 1.6 | 3.2 | 0.00 | 0.00 | 0.00 | 47 | 1009.8 |
| 20260505031414 | 16 | 166 | 1.6 | 3.2 | 0.00 | 0.00 | 0.00 | 47 | 1009.6 |
| 20260505030911 | 17 | 167 | 1.6 | 0.0 | 0.00 | 0.00 | 0.00 | 47 | 1009.7 |
| 20260505030407 | 17 | 167 | 3.2 | 3.2 | 0.00 | 0.00 | 0.00 | 46 | 1009.9 |
| 20260505025902 | 17 | 167 | 0.0 | 0.0 | 0.00 | 0.00 | 0.00 | 46 | 1009.7 |
| 20260505025401 | 17 | 167 | 0.0 | 0.0 | 0.00 | 0.00 | 0.00 | 45 | 1009.7 |
| 20260505024859 | 17 | 167 | 1.6 | 3.2 | 0.00 | 0.00 | 0.00 | 46 | 1009.6 |
| 20260505024356 | 17 | 167 | 0.0 | 0.0 | 0.00 | 0.00 | 0.00 | 45 | 1009.7 |
| 20260505023853 | 17 | 167 | 1.6 | 3.2 | 0.00 | 0.00 | 0.00 | 44 | 1009.8 |
| 20260505023350 | 17 | 168 | 0.0 | 0.0 | 0.00 | 0.00 | 0.00 | 45 | 1009.8 |
| 20260505022847 | 17 | 177 | 1.6 | 3.2 | 0.00 | 0.00 | 0.00 | 45 | 1010.2 |
| 20260505022344 | 17 | 177 | 0.0 | 0.0 | 0.00 | 0.00 | 0.00 | 45 | 1009.9 |
| 20260505021842 | 17 | 179 | 1.6 | 3.2 | 0.00 | 0.00 | 0.00 | 46 | 1009.9 |
| 20260505021338 | 17 | 192 | 0.0 | 0.0 | 0.00 | 0.00 | 0.00 | 46 | 1010.1 |
| 20260505020834 | 17 | 192 | 3.2 | 3.2 | 0.00 | 0.00 | 0.00 | 45 | 1010.1 |
| 20260505020330 | 17 | 194 | 0.0 | 3.2 | 0.00 | 0.00 | 0.00 | 46 | 1009.9 |
| 20260505015827 | 17 | 194 | 1.6 | 3.2 | 0.00 | 0.00 | 0.00 | 46 | 1009.9 |
| 20260505015324 | 16 | 194 | 3.2 | 4.8 | 0.00 | 0.00 | 0.00 | 48 | 1009.9 |
| 20260505014821 | 16 | 262 | 0.0 | 0.0 | 0.00 | 0.00 | 0.00 | 50 | 1010.1 |
| 20260505014318 | 15 | 266 | 3.2 | 3.2 | 0.00 | 0.00 | 0.00 | 51 | 1009.9 |
| 20260505013814 | 15 | 155 | 0.0 | 0.0 | 0.00 | 0.00 | 0.00 | 54 | 1009.8 |
| 20260505013312 | 15 | 155 | 0.0 | 0.0 | 0.00 | 0.00 | 0.00 | 53 | 1010.0 |
| 20260505012810 | 15 | 155 | 0.0 | 0.0 | 0.00 | 0.00 | 0.00 | 53 | 1009.9 |
| 20260505012308 | 16 | 155 | 0.0 | 0.0 | 0.00 | 0.00 | 0.00 | 51 | 1009.7 |
| 20260505011803 | 16 | 155 | 0.0 | 0.0 | 0.00 | 0.00 | 0.00 | 51 | 1009.9 |
| 20260505011301 | 16 | 155 | 0.0 | 0.0 | 0.00 | 0.00 | 0.00 | 49 | 1009.9 |
| 20260505010756 | 16 | 155 | 0.0 | 0.0 | 0.00 | 0.00 | 0.00 | 48 | 1009.6 |
| 20260505010252 | 17 | 155 | 0.0 | 0.0 | 0.00 | 0.00 | 0.00 | 47 | 1009.8 |
| 20260505005748 | 17 | 155 | 0.0 | 0.0 | 0.00 | 0.00 | 0.00 | 45 | 1009.6 |
| 20260505005246 | 17 | 155 | 0.0 | 0.0 | 0.00 | 0.00 | 0.00 | 45 | 1009.5 |
| 20260505004743 | 17 | 155 | 0.0 | 0.0 | 0.00 | 0.00 | 0.00 | 44 | 1009.4 |
| 20260505004239 | 18 | 155 | 0.0 | 0.0 | 0.00 | 0.00 | 0.00 | 43 | 1009.3 |
| 20260505003737 | 18 | 155 | 0.0 | 0.0 | 0.00 | 0.00 | 0.00 | 42 | 1009.4 |
| 20260505003235 | 18 | 155 | 0.0 | 0.0 | 0.00 | 0.00 | 0.00 | 41 | 1009.3 |
| 20260505002730 | 18 | 155 | 1.6 | 3.2 | 0.00 | 0.00 | 0.00 | 40 | 1009.5 |
| 20260505002228 | 19 | 156 | 1.6 | 3.2 | 0.00 | 0.00 | 0.00 | 40 | 1009.3 |
| 20260505001725 | 19 | 156 | 1.6 | 3.2 | 0.00 | 0.00 | 0.00 | 40 | 1009.5 |
| 20260505001223 | 20 | 158 | 1.6 | 3.2 | 0.00 | 0.00 | 0.00 | 38 | 1009.2 |
| 20260505000719 | 20 | 226 | 3.2 | 3.2 | 0.00 | 0.00 | 0.00 | 38 | 1009.2 |
| 20260505000218 | 20 | 261 | 0.0 | 0.0 | 0.00 | 0.00 | 0.00 | 37 | 1009.2 |
| 20260504235713 | 20 | 261 | 3.2 | 3.2 | 0.00 | 0.00 | 0.00 | 37 | 1009.3 |
| 20260504235210 | 20 | 219 | 0.0 | 0.0 | 0.00 | 0.00 | 0.00 | 37 | 1009.0 |
| 20260504234707 | 20 | 225 | 0.0 | 0.0 | 0.00 | 0.00 | 0.00 | 37 | 1009.4 |
| 20260504234204 | 20 | 175 | 6.4 | 8.0 | 0.00 | 0.00 | 0.00 | 36 | 1009.1 |
| 20260504233700 | 21 | 148 | 4.8 | 4.8 | 0.00 | 0.00 | 0.00 | 36 | 1009.3 |
| 20260504233156 | 21 | 194 | 3.2 | 3.2 | 0.00 | 0.00 | 0.00 | 35 | 1009.2 |
| 20260504232654 | 21 | 155 | 8.0 | 11.3 | 0.00 | 0.00 | 0.00 | 35 | 1009.1 |
| 20260504232151 | 21 | 264 | 4.8 | 4.8 | 0.00 | 0.00 | 0.00 | 34 | 1009.1 |
| 20260504231648 | 21 | 223 | 11.3 | 11.3 | 0.00 | 0.00 | 0.00 | 33 | 1009.3 |
| 20260504231144 | 21 | 173 | 9.7 | 11.3 | 0.00 | 0.00 | 0.00 | 34 | 1009.2 |
| 20260504230640 | 21 | 192 | 6.4 | 8.0 | 0.00 | 0.00 | 0.00 | 33 | 1009.3 |
| 20260504230139 | 21 | 145 | 3.2 | 4.8 | 0.00 | 0.00 | 0.00 | 33 | 1009.2 |
| 20260504225637 | 21 | 147 | 6.4 | 8.0 | 0.00 | 0.00 | 0.00 | 33 | 1009.0 |
| 20260504225132 | 21 | 197 | 4.8 | 4.8 | 0.00 | 0.00 | 0.00 | 34 | 1009.1 |
| 20260504224629 | 21 | 234 | 4.8 | 4.8 | 0.00 | 0.00 | 0.00 | 33 | 1009.3 |
| 20260504224126 | 22 | 211 | 4.8 | 4.8 | 0.00 | 0.00 | 0.00 | 34 | 1009.2 |
| 20260504223624 | 22 | 177 | 1.6 | 3.2 | 0.00 | 0.00 | 0.00 | 34 | 1009.4 |
| 20260504223119 | 22 | 177 | 3.2 | 4.8 | 0.00 | 0.00 | 0.00 | 34 | 1009.1 |
| 20260504222616 | 22 | 186 | 4.8 | 8.0 | 0.00 | 0.00 | 0.00 | 33 | 1009.3 |
| 20260504222113 | 22 | 137 | 8.0 | 11.3 | 0.00 | 0.00 | 0.00 | 33 | 1009.3 |
| 20260504221610 | 22 | 163 | 8.0 | 11.3 | 0.00 | 0.00 | 0.00 | 33 | 1009.3 |
| 20260504221108 | 22 | 337 | 6.4 | 8.0 | 0.00 | 0.00 | 0.00 | 33 | 1009.3 |
| 20260504220604 | 22 | 121 | 4.8 | 4.8 | 0.00 | 0.00 | 0.00 | 31 | 1009.3 |
| 20260504215558 | 22 | 100 | 4.8 | 4.8 | 0.00 | 0.00 | 0.00 | 32 | 1009.2 |
| 20260504215055 | 22 | 279 | 4.8 | 4.8 | 0.00 | 0.00 | 0.00 | 32 | 1009.2 |
| 20260504214550 | 22 | 123 | 3.2 | 4.8 | 0.00 | 0.00 | 0.00 | 33 | 1009.4 |
| 20260504214047 | 22 | 216 | 3.2 | 3.2 | 0.00 | 0.00 | 0.00 | 34 | 1009.3 |
| 20260504213543 | 22 | 160 | 6.4 | 8.0 | 0.00 | 0.00 | 0.00 | 34 | 1009.1 |
| 20260504213041 | 22 | 247 | 4.8 | 4.8 | 0.00 | 0.00 | 0.00 | 33 | 1009.4 |
| 20260504212536 | 22 | 229 | 12.9 | 16.1 | 0.00 | 0.00 | 0.00 | 32 | 1009.4 |
| 20260504212034 | 22 | 148 | 6.4 | 8.0 | 0.00 | 0.00 | 0.00 | 33 | 1009.3 |
| 20260504211531 | 22 | 166 | 6.4 | 8.0 | 0.00 | 0.00 | 0.00 | 33 | 1009.2 |
| 20260504211028 | 22 | 144 | 6.4 | 11.3 | 0.00 | 0.00 | 0.00 | 32 | 1009.3 |
| 20260504210525 | 22 | 255 | 9.7 | 11.3 | 0.00 | 0.00 | 0.00 | 31 | 1009.4 |
| 20260504210022 | 22 | 245 | 11.3 | 16.1 | 0.00 | 0.00 | 0.00 | 32 | 1009.4 |
| 20260504205520 | 23 | 179 | 9.7 | 11.3 | 0.00 | 0.00 | 0.00 | 31 | 1009.3 |
| 20260504205017 | 23 | 170 | 11.3 | 16.1 | 0.00 | 0.00 | 0.00 | 31 | 1009.3 |
| 20260504204515 | 23 | 139 | 17.7 | 24.1 | 0.00 | 0.00 | 0.00 | 31 | 1009.4 |
| 20260504204014 | 22 | 191 | 8.0 | 11.3 | 0.00 | 0.00 | 0.00 | 34 | 1009.3 |
| 20260504203512 | 22 | 244 | 12.9 | 19.3 | 0.00 | 0.00 | 0.00 | 33 | 1009.5 |
| 20260504203009 | 23 | 148 | 6.4 | 11.3 | 0.00 | 0.00 | 0.00 | 32 | 1009.4 |
| 20260504202504 | 22 | 169 | 9.7 | 14.5 | 0.00 | 0.00 | 0.00 | 33 | 1009.5 |
| 20260504202001 | 23 | 180 | 9.7 | 11.3 | 0.00 | 0.00 | 0.00 | 33 | 1009.6 |
| 20260504201458 | 23 | 234 | 9.7 | 14.5 | 0.00 | 0.00 | 0.00 | 32 | 1009.7 |
| 20260504200955 | 23 | 146 | 9.7 | 14.5 | 0.00 | 0.00 | 0.00 | 32 | 1009.5 |
| 20260504200452 | 23 | 158 | 6.4 | 8.0 | 0.00 | 0.00 | 0.00 | 32 | 1009.6 |
| 20260504195949 | 23 | 211 | 8.0 | 11.3 | 0.00 | 0.00 | 0.00 | 33 | 1009.7 |
| 20260504195444 | 23 | 193 | 9.7 | 11.3 | 0.00 | 0.00 | 0.00 | 34 | 1009.5 |
| 20260504194941 | 22 | 190 | 6.4 | 8.0 | 0.00 | 0.00 | 0.00 | 35 | 1009.8 |
| 20260504194438 | 22 | 111 | 6.4 | 8.0 | 0.00 | 0.00 | 0.00 | 33 | 1009.9 |
| 20260504193933 | 23 | 269 | 9.7 | 11.3 | 0.00 | 0.00 | 0.00 | 32 | 1009.9 |
| 20260504193431 | 22 | 193 | 12.9 | 22.5 | 0.00 | 0.00 | 0.00 | 31 | 1010.1 |
| 20260504192930 | 22 | 193 | 8.0 | 11.3 | 0.00 | 0.00 | 0.00 | 34 | 1009.9 |
| 20260504192426 | 23 | 1 | 14.5 | 19.3 | 0.00 | 0.00 | 0.00 | 30 | 1009.9 |
| 20260504191925 | 22 | 232 | 12.9 | 19.3 | 0.00 | 0.00 | 0.00 | 30 | 1010.1 |
| 20260504191423 | 22 | 234 | 6.4 | 4.8 | 0.00 | 0.00 | 0.00 | 32 | 1010.0 |
| 20260504190918 | 22 | 171 | 11.3 | 16.1 | 0.00 | 0.00 | 0.00 | 32 | 1010.4 |
| 20260504190414 | 22 | 140 | 11.3 | 11.3 | 0.00 | 0.00 | 0.00 | 33 | 1010.2 |
| 20260504185911 | 22 | 242 | 3.2 | 3.2 | 0.00 | 0.00 | 0.00 | 30 | 1010.2 |
| 20260504185408 | 22 | 191 | 4.8 | 4.8 | 0.00 | 0.00 | 0.00 | 32 | 1010.5 |
| 20260504184904 | 22 | 200 | 14.5 | 16.1 | 0.00 | 0.00 | 0.00 | 31 | 1010.5 |
| 20260504184400 | 23 | 182 | 8.0 | 11.3 | 0.00 | 0.00 | 0.00 | 30 | 1010.5 |
| 20260504183856 | 22 | 200 | 3.2 | 3.2 | 0.00 | 0.00 | 0.00 | 35 | 1010.4 |
| 20260504183354 | 22 | 297 | 9.7 | 14.5 | 0.00 | 0.00 | 0.00 | 30 | 1010.5 |
| 20260504182851 | 22 | 232 | 12.9 | 19.3 | 0.00 | 0.00 | 0.00 | 30 | 1010.6 |
| 20260504182348 | 22 | 164 | 12.9 | 16.1 | 0.00 | 0.00 | 0.00 | 32 | 1010.9 |
| 20260504181845 | 22 | 188 | 9.7 | 11.3 | 0.00 | 0.00 | 0.00 | 32 | 1011.0 |
| 20260504181342 | 22 | 264 | 16.1 | 24.1 | 0.00 | 0.00 | 0.00 | 31 | 1011.0 |
| 20260504180841 | 22 | 98 | 4.8 | 4.8 | 0.00 | 0.00 | 0.00 | 34 | 1010.8 |
| 20260504180339 | 22 | 166 | 6.4 | 8.0 | 0.00 | 0.00 | 0.00 | 35 | 1011.2 |
| 20260504175837 | 21 | 331 | 4.8 | 4.8 | 0.00 | 0.00 | 0.00 | 32 | 1011.1 |
| 20260504175333 | 21 | 126 | 9.7 | 14.5 | 0.00 | 0.00 | 0.00 | 35 | 1011.5 |
| 20260504174832 | 21 | 189 | 9.7 | 14.5 | 0.00 | 0.00 | 0.00 | 32 | 1011.2 |
| 20260504174329 | 21 | 142 | 12.9 | 14.5 | 0.00 | 0.00 | 0.00 | 30 | 1011.2 |
| 20260504173826 | 21 | 171 | 9.7 | 11.3 | 0.00 | 0.00 | 0.00 | 33 | 1011.5 |
| 20260504173322 | 21 | 183 | 6.4 | 8.0 | 0.00 | 0.00 | 0.00 | 33 | 1011.7 |
| 20260504172819 | 21 | 121 | 11.3 | 14.5 | 0.00 | 0.00 | 0.00 | 30 | 1011.8 |
| 20260504172316 | 21 | 252 | 14.5 | 16.1 | 0.00 | 0.00 | 0.00 | 30 | 1011.8 |
| 20260504171811 | 21 | 162 | 4.8 | 8.0 | 0.00 | 0.00 | 0.00 | 32 | 1011.8 |
| 20260504171309 | 21 | 234 | 11.3 | 14.5 | 0.00 | 0.00 | 0.00 | 31 | 1011.8 |
| 20260504170806 | 21 | 214 | 8.0 | 14.5 | 0.00 | 0.00 | 0.00 | 33 | 1011.9 |
| 20260504170303 | 21 | 286 | 14.5 | 19.3 | 0.00 | 0.00 | 0.00 | 31 | 1012.2 |
| 20260504160221 | 21 | 289 | 11.3 | 16.1 | 0.00 | 0.00 | 0.00 | 30 | 1012.9 |
| 20260504151150 | 18 | 123 | 9.7 | 16.1 | 0.00 | 0.00 | 0.00 | 35 | 1013.2 |
| 20260504150647 | 19 | 179 | 8.0 | 8.0 | 0.00 | 0.00 | 0.00 | 34 | 1013.4 |
| 20260504150144 | 18 | 302 | 9.7 | 11.3 | 0.00 | 0.00 | 0.00 | 38 | 1013.2 |
| 20260504141113 | 16 | 244 | 6.4 | 4.8 | 0.00 | 0.00 | 0.00 | 48 | 1013.5 |
| 20260504140609 | 16 | 124 | 6.4 | 8.0 | 0.00 | 0.00 | 0.00 | 49 | 1013.6 |
| 20260504140105 | 16 | 269 | 6.4 | 8.0 | 0.00 | 0.00 | 0.00 | 51 | 1013.8 |
| 20260504130533 | 14 | 155 | 9.7 | 11.3 | 0.00 | 0.00 | 0.00 | 57 | 1014.1 |
| 20260504110421 | 7 | 65 | 1.6 | 0.0 | 0.00 | 0.00 | 0.00 | 63 | 1014.5 |
| 20260504100338 | 3 | 36 | 0.0 | 0.0 | 0.00 | 0.00 | 0.00 | 80 | 1014.4 |
| 20260504081731 | 3 | 36 | 0.0 | 0.0 | 0.00 | 0.00 | 0.00 | 84 | 1014.4 |
| 20260504081227 | 3 | 36 | 0.0 | 0.0 | 0.00 | 0.00 | 0.00 | 84 | 1014.5 |
| 20260504080724 | 3 | 36 | 0.0 | 0.0 | 0.00 | 0.00 | 0.00 | 86 | 1014.2 |
| 20260504080221 | 3 | 36 | 0.0 | 0.0 | 0.00 | 0.00 | 0.00 | 85 | 1014.2 |
| 20260504070148 | 3 | 37 | 0.0 | 0.0 | 0.00 | 0.00 | 0.00 | 82 | 1014.4 |
| 20260504060109 | 5 | 36 | 0.0 | 0.0 | 0.00 | 0.00 | 0.00 | 77 | 1014.3 |